Time,TemperatureF,DewpointF,PressureIn,WindDirection,WindDirectionDegrees,WindSpeedMPH,WindSpeedGustMPH,Humidity,HourlyPrecipIn,Conditions,Clouds,dailyrainin,SoftwareType,DateUTC
2013-10-30 00:04:00,70.9,65.0,30.09,SE,143,4.0,-999.0,81,-99.99,,,0.00,weatherlink.com 1.10,2013-10-30 05:04:00,
2013-10-30 00:19:00,70.6,65.0,30.08,SE,127,6.0,-999.0,82,-99.99,,,0.00,weatherlink.com 1.10,2013-10-30 05:19:00,
2013-10-30 00:34:00,70.5,65.0,30.08,SE,126,5.0,-999.0,83,-99.99,,,0.00,weatherlink.com 1.10,2013-10-30 05:34:00,
2013-10-30 00:49:00,70.3,65.0,30.08,ESE,112,4.0,-999.0,83,-99.99,,,0.00,weatherlink.com 1.10,2013-10-30 05:49:00,
2013-10-30 01:04:00,70.1,65.0,30.08,SE,129,2.0,-999.0,83,-99.99,,,0.00,weatherlink.com 1.10,2013-10-30 06:04:00,
2013-10-30 01:19:00,69.9,65.0,30.07,SE,128,4.0,-999.0,84,-99.99,,,0.00,weatherlink.com 1.10,2013-10-30 06:19:00,
2013-10-30 01:34:00,69.9,65.0,30.08,SE,129,5.0,-999.0,84,-99.99,,,0.00,weatherlink.com 1.10,2013-10-30 06:34:00,
2013-10-30 01:49:00,69.9,65.0,30.08,ESE,103,2.0,-999.0,84,-99.99,,,0.00,weatherlink.com 1.10,2013-10-30 06:49:00,
2013-10-30 02:04:00,70.0,65.0,30.07,SE,131,4.0,-999.0,85,-99.99,,,0.00,weatherlink.com 1.10,2013-10-30 07:04:00,
2013-10-30 02:19:00,70.1,65.0,30.07,SE,131,4.0,-999.0,85,-99.99,,,0.00,weatherlink.com 1.10,2013-10-30 07:19:00,
2013-10-30 02:34:00,70.3,66.0,30.07,SE,146,2.0,-999.0,85,-99.99,,,0.00,weatherlink.com 1.10,2013-10-30 07:34:00,
2013-10-30 02:49:00,70.5,66.0,30.07,SE,131,2.0,-999.0,85,-99.99,,,0.00,weatherlink.com 1.10,2013-10-30 07:49:00,
2013-10-30 03:20:00,70.8,66.0,30.06,SE,124,5.0,-999.0,85,-99.99,,,0.00,weatherlink.com 1.10,2013-10-30 08:20:00,
2013-10-30 03:35:00,71.2,67.0,30.06,SE,145,4.0,-999.0,85,-99.99,,,0.00,weatherlink.com 1.10,2013-10-30 08:35:00,
2013-10-30 03:50:00,71.6,67.0,30.06,SE,139,4.0,-999.0,85,-99.99,,,0.00,weatherlink.com 1.10,2013-10-30 08:50:00,
2013-10-30 04:05:00,71.9,67.0,30.05,SE,126,7.0,-999.0,85,-99.99,,,0.00,weatherlink.com 1.10,2013-10-30 09:05:00,
2013-10-30 04:20:00,72.1,67.0,30.05,SE,135,2.0,-999.0,85,-99.99,,,0.00,weatherlink.com 1.10,2013-10-30 09:20:00,
2013-10-30 04:35:00,72.2,68.0,30.04,SE,131,2.0,-999.0,85,-99.99,,,0.00,weatherlink.com 1.10,2013-10-30 09:35:00,
2013-10-30 04:50:00,72.2,68.0,30.04,SE,142,7.0,-999.0,85,-99.99,,,0.00,weatherlink.com 1.10,2013-10-30 09:50:00,
2013-10-30 05:05:00,72.3,67.0,30.02,SSE,165,9.0,-999.0,84,-99.99,,,0.00,weatherlink.com 1.10,2013-10-30 10:05:00,
2013-10-30 05:20:00,72.2,67.0,30.03,ESE,121,6.0,-999.0,84,-99.99,,,0.00,weatherlink.com 1.10,2013-10-30 10:20:00,
2013-10-30 05:35:00,72.1,67.0,30.02,SE,126,7.0,-999.0,84,-99.99,,,0.00,weatherlink.com 1.10,2013-10-30 10:35:00,
2013-10-30 05:50:00,72.1,67.0,30.02,SE,135,9.0,-999.0,84,-99.99,,,0.00,weatherlink.com 1.10,2013-10-30 10:50:00,
2013-10-30 06:05:00,72.1,67.0,30.01,ESE,110,9.0,-999.0,84,-99.99,,,0.00,weatherlink.com 1.10,2013-10-30 11:05:00,
2013-10-30 06:20:00,72.2,67.0,30.02,SE,132,5.0,-999.0,84,-99.99,,,0.00,weatherlink.com 1.10,2013-10-30 11:20:00,
2013-10-30 06:35:00,72.3,67.0,30.02,SE,124,8.0,-999.0,83,-99.99,,,0.00,weatherlink.com 1.10,2013-10-30 11:35:00,
2013-10-30 06:50:00,72.5,67.0,30.02,South,181,9.0,-999.0,83,-99.99,,,0.00,weatherlink.com 1.10,2013-10-30 11:50:00,
2013-10-30 07:05:00,72.4,67.0,30.02,ESE,112,6.0,-999.0,83,-99.99,,,0.01,weatherlink.com 1.10,2013-10-30 12:05:00,
2013-10-30 07:20:00,71.8,67.0,30.02,SE,141,4.0,-999.0,85,-99.99,,,0.02,weatherlink.com 1.10,2013-10-30 12:20:00,
2013-10-30 07:35:00,71.4,67.0,30.01,SE,128,5.0,-999.0,86,-99.99,,,0.05,weatherlink.com 1.10,2013-10-30 12:35:00,
2013-10-30 07:50:00,71.1,67.0,30.00,SE,132,8.0,-999.0,86,-99.99,,,0.06,weatherlink.com 1.10,2013-10-30 12:50:00,
2013-10-30 08:05:00,71.0,67.0,30.02,SE,135,9.0,-999.0,87,-99.99,,,0.07,weatherlink.com 1.10,2013-10-30 13:05:00,
2013-10-30 08:20:00,71.0,67.0,30.02,ESE,104,6.0,-999.0,87,-99.99,,,0.08,weatherlink.com 1.10,2013-10-30 13:20:00,
2013-10-30 08:35:00,70.9,67.0,30.03,SE,125,7.0,-999.0,87,-99.99,,,0.10,weatherlink.com 1.10,2013-10-30 13:35:00,
2013-10-30 08:50:00,70.8,67.0,30.02,East,101,8.0,-999.0,87,-99.99,,,0.10,weatherlink.com 1.10,2013-10-30 13:50:00,
2013-10-30 09:05:00,70.9,67.0,30.02,SE,128,9.0,-999.0,87,-99.99,,,0.10,weatherlink.com 1.10,2013-10-30 14:05:00,
2013-10-30 09:20:00,70.9,67.0,30.04,SSE,150,7.0,-999.0,87,-99.99,,,0.11,weatherlink.com 1.10,2013-10-30 14:20:00,
2013-10-30 09:35:00,70.8,67.0,30.02,SE,135,9.0,-999.0,87,-99.99,,,0.17,weatherlink.com 1.10,2013-10-30 14:35:00,
2013-10-30 09:50:00,70.9,67.0,30.02,East,98,7.0,-999.0,88,-99.99,,,0.21,weatherlink.com 1.10,2013-10-30 14:50:00,
2013-10-30 10:06:00,70.8,67.0,30.02,ESE,117,10.0,-999.0,88,-99.99,,,0.30,weatherlink.com 1.10,2013-10-30 15:06:00,
2013-10-30 10:21:00,70.8,67.0,30.02,SE,131,10.0,-999.0,88,-99.99,,,0.33,weatherlink.com 1.10,2013-10-30 15:21:00,
2013-10-30 10:36:00,70.6,67.0,30.03,ESE,118,5.0,-999.0,88,-99.99,,,0.36,weatherlink.com 1.10,2013-10-30 15:36:00,
2013-10-30 10:51:00,70.4,67.0,30.02,SSE,148,9.0,-999.0,88,-99.99,,,0.39,weatherlink.com 1.10,2013-10-30 15:51:00,
2013-10-30 11:05:00,70.0,66.0,30.04,SE,141,10.0,-999.0,88,-99.99,,,0.40,weatherlink.com 1.10,2013-10-30 16:05:00,
2013-10-30 11:21:00,69.8,66.0,30.04,SE,124,12.0,-999.0,88,-99.99,,,0.42,weatherlink.com 1.10,2013-10-30 16:21:00,
2013-10-30 11:36:00,69.7,66.0,30.04,ESE,119,7.0,-999.0,88,-99.99,,,0.48,weatherlink.com 1.10,2013-10-30 16:36:00,
2013-10-30 11:51:00,69.9,66.0,30.04,ESE,108,9.0,-999.0,88,-99.99,,,0.48,weatherlink.com 1.10,2013-10-30 16:51:00,
2013-10-30 12:06:00,70.0,66.0,30.03,ESE,118,8.0,-999.0,88,-99.99,,,0.48,weatherlink.com 1.10,2013-10-30 17:06:00,
2013-10-30 12:21:00,69.7,66.0,30.02,SE,124,10.0,-999.0,88,-99.99,,,0.48,weatherlink.com 1.10,2013-10-30 17:21:00,
2013-10-30 12:36:00,70.1,67.0,30.02,East,83,4.0,-999.0,88,-99.99,,,0.48,weatherlink.com 1.10,2013-10-30 17:36:00,
2013-10-30 12:51:00,69.8,66.0,30.01,East,92,6.0,-999.0,88,-99.99,,,0.49,weatherlink.com 1.10,2013-10-30 17:51:00,
2013-10-30 13:06:00,69.0,65.0,30.00,NE,54,5.0,-999.0,87,-99.99,,,0.49,weatherlink.com 1.10,2013-10-30 18:06:00,
2013-10-30 13:21:00,69.0,65.0,29.99,East,80,2.0,-999.0,88,-99.99,,,0.49,weatherlink.com 1.10,2013-10-30 18:21:00,
2013-10-30 13:36:00,68.8,65.0,29.98,ENE,63,5.0,-999.0,88,-99.99,,,0.52,weatherlink.com 1.10,2013-10-30 18:36:00,
2013-10-30 13:51:00,69.2,66.0,29.96,East,92,6.0,-999.0,88,-99.99,,,0.54,weatherlink.com 1.10,2013-10-30 18:51:00,
2013-10-30 14:06:00,70.2,67.0,29.95,East,97,1.0,-999.0,88,-99.99,,,0.54,weatherlink.com 1.10,2013-10-30 19:06:00,
2013-10-30 14:21:00,70.1,67.0,29.94,NE,49,4.0,-999.0,88,-99.99,,,0.54,weatherlink.com 1.10,2013-10-30 19:21:00,
2013-10-30 14:36:00,69.9,66.0,29.93,ENE,74,2.0,-999.0,88,-99.99,,,0.55,weatherlink.com 1.10,2013-10-30 19:36:00,
2013-10-30 14:51:00,69.7,66.0,29.92,NE,56,1.0,-999.0,88,-99.99,,,0.60,weatherlink.com 1.10,2013-10-30 19:51:00,
2013-10-30 15:07:00,69.4,66.0,29.92,East,82,1.0,-999.0,88,-99.99,,,0.64,weatherlink.com 1.10,2013-10-30 20:07:00,
2013-10-30 15:36:00,69.7,66.0,29.90,ESE,104,4.0,-999.0,88,-99.99,,,0.66,weatherlink.com 1.10,2013-10-30 20:36:00,
2013-10-30 15:51:00,69.5,66.0,29.90,NE,35,3.0,-999.0,88,-99.99,,,0.70,weatherlink.com 1.10,2013-10-30 20:51:00,
2013-10-30 16:07:00,69.5,66.0,29.89,East,95,4.0,-999.0,88,-99.99,,,0.70,weatherlink.com 1.10,2013-10-30 21:07:00,
2013-10-30 16:22:00,70.0,67.0,29.89,East,90,2.0,-999.0,89,-99.99,,,0.70,weatherlink.com 1.10,2013-10-30 21:22:00,
2013-10-30 16:52:00,70.4,67.0,29.89,East,101,6.0,-999.0,89,-99.99,,,0.70,weatherlink.com 1.10,2013-10-30 21:52:00,
2013-10-30 17:07:00,70.5,67.0,29.88,NE,53,4.0,-999.0,89,-99.99,,,0.70,weatherlink.com 1.10,2013-10-30 22:07:00,
2013-10-30 17:22:00,70.6,67.0,29.88,East,80,4.0,-999.0,89,-99.99,,,0.70,weatherlink.com 1.10,2013-10-30 22:22:00,
2013-10-30 17:37:00,70.9,68.0,29.87,ESE,106,6.0,-999.0,89,-99.99,,,0.70,weatherlink.com 1.10,2013-10-30 22:37:00,
2013-10-30 17:52:00,71.0,68.0,29.87,ENE,70,1.0,-999.0,89,-99.99,,,0.70,weatherlink.com 1.10,2013-10-30 22:52:00,
2013-10-30 18:07:00,71.1,68.0,29.87,SE,136,2.0,-999.0,89,-99.99,,,0.70,weatherlink.com 1.10,2013-10-30 23:07:00,
2013-10-30 18:22:00,71.3,68.0,29.86,ESE,102,1.0,-999.0,89,-99.99,,,0.70,weatherlink.com 1.10,2013-10-30 23:22:00,
2013-10-30 18:37:00,71.4,68.0,29.87,NE,56,2.0,-999.0,89,-99.99,,,0.70,weatherlink.com 1.10,2013-10-30 23:37:00,
2013-10-30 18:52:00,71.6,68.0,29.86,ENE,70,2.0,-999.0,89,-99.99,,,0.70,weatherlink.com 1.10,2013-10-30 23:52:00,
2013-10-30 19:07:00,71.8,69.0,29.86,ESE,120,0.0,-999.0,89,-99.99,,,0.70,weatherlink.com 1.10,2013-10-31 00:07:00,
2013-10-30 19:22:00,72.1,69.0,29.88,ESE,118,0.0,-999.0,89,-99.99,,,0.70,weatherlink.com 1.10,2013-10-31 00:22:00,
2013-10-30 19:37:00,72.3,69.0,29.88,ESE,118,0.0,-999.0,89,-99.99,,,0.70,weatherlink.com 1.10,2013-10-31 00:37:00,
2013-10-30 19:52:00,72.5,69.0,29.88,ESE,118,0.0,-999.0,89,-99.99,,,0.70,weatherlink.com 1.10,2013-10-31 00:52:00,
2013-10-30 20:07:00,72.8,70.0,29.88,ESE,118,0.0,-999.0,89,-99.99,,,0.70,weatherlink.com 1.10,2013-10-31 01:07:00,
2013-10-30 20:22:00,73.2,70.0,29.88,ESE,118,0.0,-999.0,89,-99.99,,,0.70,weatherlink.com 1.10,2013-10-31 01:22:00,
2013-10-30 20:37:00,73.7,70.0,29.88,ESE,118,1.0,-999.0,89,-99.99,,,0.70,weatherlink.com 1.10,2013-10-31 01:37:00,
2013-10-30 20:52:00,73.8,70.0,29.88,ESE,116,0.0,-999.0,89,-99.99,,,0.70,weatherlink.com 1.10,2013-10-31 01:52:00,
2013-10-30 21:07:00,74.1,71.0,29.87,ESE,117,2.0,-999.0,89,-99.99,,,0.70,weatherlink.com 1.10,2013-10-31 02:07:00,
2013-10-30 21:22:00,74.7,71.0,29.87,SE,129,2.0,-999.0,89,-99.99,,,0.70,weatherlink.com 1.10,2013-10-31 02:22:00,
2013-10-30 21:37:00,75.0,72.0,29.87,SE,138,4.0,-999.0,89,-99.99,,,0.70,weatherlink.com 1.10,2013-10-31 02:37:00,
2013-10-30 21:52:00,75.2,72.0,29.86,SSE,161,7.0,-999.0,89,-99.99,,,0.70,weatherlink.com 1.10,2013-10-31 02:52:00,
2013-10-30 22:07:00,75.2,72.0,29.86,SSE,149,4.0,-999.0,89,-99.99,,,0.70,weatherlink.com 1.10,2013-10-31 03:07:00,
2013-10-30 22:22:00,75.2,72.0,29.86,SSE,164,6.0,-999.0,89,-99.99,,,0.70,weatherlink.com 1.10,2013-10-31 03:22:00,
2013-10-30 22:37:00,75.1,72.0,29.86,SSE,168,2.0,-999.0,89,-99.99,,,0.70,weatherlink.com 1.10,2013-10-31 03:37:00,
2013-10-30 22:52:00,75.2,72.0,29.86,South,172,3.0,-999.0,89,-99.99,,,0.71,weatherlink.com 1.10,2013-10-31 03:52:00,
2013-10-30 23:07:00,75.1,72.0,29.86,South,182,4.0,-999.0,89,-99.99,,,0.71,weatherlink.com 1.10,2013-10-31 04:07:00,
2013-10-30 23:22:00,75.0,71.0,29.86,SSE,165,3.0,-999.0,88,-99.99,,,0.71,weatherlink.com 1.10,2013-10-31 04:22:00,
2013-10-30 23:37:00,75.1,71.0,29.85,SSW,207,3.0,-999.0,88,-99.99,,,0.71,weatherlink.com 1.10,2013-10-31 04:37:00,
2013-10-30 23:52:00,75.1,71.0,29.85,SSE,163,8.0,-999.0,88,-99.99,,,0.71,weatherlink.com 1.10,2013-10-31 04:52:00,